[[{"header":{"parameterUnit":"m.s-1","parameterCategory":1,"la1":30.2991,"la2":30.254,"lo1":-89.0895,"lo2":-89.0444,"dy":0.0017,"dx":0.0017,"nx":28,"ny":28,"refTime":"2024-04-27T03:00:00:Z","depth":0,"parameterNumber":2,"parameterNumberName":"U-component_of_WINDS"},"data":[0,0,0,0,0,0,0,0,0,0,0,0,0,0,0,0,0,0,0,0,0,0,0,0,0,0,0,0,0,0,0,0,0,0,0,0,0,0,0,0,0,0,0,0,0,0,0,0,0,0,0,0,0,0,0,0,0,0,-7.0517,-7.0519,0,-7.0682,-7.0684,-7.0686,-7.0629,-7.0626,-7.0622,-7.0619,-7.0785,-7.0793,-7.0801,0,0,0,0,0,0,0,0,0,0,0,0,0,-7.0152,-7.0159,-7.0517,-7.0519,-7.0521,-7.0682,-7.0684,-7.0686,-7.063,-7.0625,-7.0621,-7.0617,-7.0783,-7.0792,-7.0801,0,0,0,0,0,0,0,0,0,0,0,0,0,-7.0313,-7.0161,-7.0517,-7.0513,-7.0514,-7.0681,-7.0684,-7.0687,-7.0631,-7.0625,-7.062,-7.0615,-7.078,-7.0791,-7.0803,-7.0984,0,0,-7.0838,-7.0843,0,0,0,0,0,0,0,0,-7.0304,-7.0326,-7.0511,-7.0513,-7.0515,-7.063,-7.0616,-7.0786,-7.0632,-7.0586,-7.0618,-7.0612,-7.0738,-7.0753,-7.0795,-7.0991,-7.0999,-7.0839,-7.0847,-7.0852,-7.0855,0,0,0,0,0,0,0,-7.0293,-7.0319,-7.0582,-7.0514,-7.0516,-7.0502,-7.0519,-7.0648,-7.069,-7.059,-7.0586,-7.0607,-7.0738,-7.0784,-7.0799,-7.1001,-7.0839,-7.085,-7.0857,-7.0861,-7.1353,-7.1359,0,0,0,0,0,0,-7.0281,-7.031,-7.0577,-7.0587,-7.0394,-7.0513,-7.0532,-7.0598,-7.0689,-7.0697,-7.0611,-7.0603,-7.0767,-7.0785,-7.0804,-7.102,-7.0851,-7.0862,-7.0869,-7.1347,-7.1354,-7.1361,0,0,0,0,0,0,-7.0273,-7.0305,-7.057,-7.0448,-7.0481,-7.0525,-7.06,-7.0604,-7.0651,-7.0705,-7.0712,-7.0651,-7.0763,-7.0788,-7.0939,-7.1025,-7.0868,-7.0878,-7.134,-7.1349,-7.1357,-7.1455,0,0,0,0,0,0,-7.0263,-7.0303,-7.0372,-7.045,-7.0487,-7.0703,-7.0605,-7.0611,-7.0671,-7.0663,-7.0744,-7.0752,-7.0761,-7.0922,-7.0951,-7.1039,-7.0888,-7.1332,-7.1344,-7.1355,-7.1444,-7.1466,-7.1485,0,0,0,0,0,-7.025,-7.0393,-7.0376,-7.0409,-7.0575,-7.0708,-7.073,-7.0737,-7.0679,-7.0748,-7.0783,-7.075,-7.1013,-7.0938,-7.097,-7.1063,-7.1327,-7.1341,-7.1354,-7.1435,-7.1462,-7.1485,0,0,0,0,0,0,-7.0323,-7.0403,-7.0385,-7.0557,-7.0627,-7.0698,-7.0786,-7.0766,-7.0852,-7.084,-7.0846,-7.0865,-7.102,-7.1057,-7.0973,-7.1242,-7.1161,-7.1181,-7.1211,-7.1238,-7.1258,-7.1244,-7.0897,0,0,0,0,0,-7.036,-7.0462,-7.0526,-7.0672,-7.0708,-7.0742,-7.08,-7.08,-7.0871,-7.09,-7.0946,-7.1016,-7.1114,-7.1179,-7.1272,-7.1451,-7.1467,-7.1531,-7.1551,-7.1567,-7.1584,-7.1679,-7.1708,-7.1405,-7.1405,-7.1405,0,0,-7.0435,-7.0492,-7.0556,-7.0688,-7.0741,-7.0846,-7.0766,-7.088,-7.0958,-7.0917,-7.1062,-7.1099,-7.1178,-7.1343,-7.1418,-7.1379,-7.1672,-7.1585,-7.1598,-7.1605,-7.1696,-7.1725,-7.175,-7.1414,-7.1413,-7.1411,0,0,-7.0626,-7.068,-7.0806,-7.0862,-7.0945,-7.0967,-7.0997,-7.1073,-7.1096,-7.1242,-7.1214,-7.1306,-7.1476,-7.1532,-7.1583,-7.1798,-7.1769,-7.1829,-7.1934,-7.2027,-7.2051,-7.2072,-7.2145,-7.2172,-7.1846,-7.1846,-7.1846,0,-7.0708,-7.0866,-7.0874,-7.0991,-7.1049,-7.1019,-7.1146,-7.12,-7.1309,-7.135,-7.1305,-7.1517,-7.1568,-7.1745,-7.1797,-7.1841,-7.1875,-7.1817,-7.2047,-7.2068,-7.2088,-7.2158,-7.2186,-7.1852,-7.1852,-7.1851,-7.185,0,-7.0962,-7.1072,-7.1164,-7.127,-7.134,-7.1462,-7.1487,-7.1557,-7.1552,-7.1579,-7.1728,-7.1789,-7.1893,-7.1936,-7.1932,-7.2113,-7.2086,-7.2045,-7.1962,-7.2123,-7.2189,-7.2216,-7.1861,-7.1859,-7.1857,-7.1856,0,0,-7.1199,-7.131,-7.1344,-7.1391,-7.1481,-7.1565,-7.1686,-7.1789,-7.1848,-7.1925,-7.2024,-7.217,-7.2132,-7.219,-7.2193,-7.2275,-7.2438,-7.2223,-7.2225,-7.2258,-7.2639,-7.2667,-7.2698,-7.2422,-7.2427,-7.2431,-7.2631,0,-7.1395,-7.1606,-7.1618,-7.1809,-7.1909,-7.1884,-7.1989,-7.2055,-7.2084,-7.2173,-7.2205,-7.2306,-7.225,-7.2285,-7.2366,-7.2401,-7.2514,-7.2388,-7.2512,-7.2517,-7.2489,-7.2733,-7.2763,-7.2948,-7.2657,-7.2662,-7.2665,0,-7.1649,-7.1734,-7.1936,-7.2012,-7.2054,-7.2148,-7.2243,-7.233,-7.2404,-7.242,-7.2486,-7.2477,-7.26,-7.2517,-7.2685,-7.2598,-7.2651,-7.2677,-7.2684,-7.2693,-7.2597,-7.2744,-7.3007,-7.3034,-7.2706,-7.2703,-7.27,0,-7.1798,-7.1964,-7.2105,-7.2147,-7.224,-7.2306,-7.2348,-7.2417,-7.2479,-7.2563,-7.2602,-7.2699,-7.2752,-7.2827,-7.2845,-7.2783,-7.3012,-7.2931,-7.3026,-7.3026,-7.3072,-7.3068,-7.3344,-7.3113,-7.3113,-7.3112,-7.3111,0,-7.2012,-7.2136,-7.2173,-7.226,-7.2397,-7.2411,-7.2546,-7.2583,-7.2646,-7.2739,-7.2724,-7.2811,-7.2831,-7.2923,-7.2938,-7.3074,-7.3099,-7.3113,-7.3115,-7.3112,-7.311,-7.3143,-7.3129,-7.3119,-7.3118,-7.3116,-7.3115,0,-7.22,-7.223,-7.2382,-7.2458,-7.248,-7.2578,-7.2642,-7.2725,-7.2754,-7.2871,-7.29,-7.2944,-7.305,-7.3077,-7.3204,-7.3215,-7.3374,-7.3366,-7.3348,-7.3347,-7.344,-7.3429,-7.3743,-7.3784,-7.353,-7.3532,-7.3534,0,-7.2332,-7.2427,-7.2513,-7.2574,-7.2619,-7.2719,-7.2781,-7.2799,-7.2865,-7.2958,-7.3029,-7.3135,-7.3219,-7.3391,-7.3434,-7.3531,-7.3523,-7.3626,-7.3537,-7.3531,-7.352,-7.3513,-7.3521,-7.3641,-7.3644,-7.3646,-7.3648,0,-7.2563,-7.2574,-7.2665,-7.2762,-7.2838,-7.2915,-7.2989,-7.304,-7.3068,-7.3142,-7.3252,-7.3318,-7.3448,-7.3552,-7.3651,-7.3693,-7.3675,-7.3677,-7.3703,-7.3699,-7.3684,-7.3691,-7.3391,-7.3668,-7.3666,-7.3665,-7.3664,-7.3663,-7.2725,-7.2807,-7.2881,-7.2983,-7.3041,-7.311,-7.3191,-7.3231,-7.3322,-7.343,-7.3435,-7.3554,-7.3626,-7.3757,-7.3805,-7.3898,-7.3866,-7.3905,-7.3914,-7.3923,-7.393,-7.3673,-7.3916,-7.3916,-7.3915,-7.3915,-7.3914,0,-7.2952,-7.2999,-7.3093,-7.3197,-7.3277,-7.3256,-7.3337,-7.3405,-7.3509,-7.3579,-7.3664,-7.3789,-7.389,-7.3942,-7.4043,-7.4107,-7.4101,-7.4132,-7.4125,-7.4135,-7.3954,-7.3919,-7.4135,-7.4135,-7.4135,-7.4135,-7.4135,-7.4135,-7.308,-7.3217,-7.3237,-7.3403,-7.3449,-7.3565,-7.3612,-7.3676,-7.3732,-7.3873,-7.3957,-7.3991,-7.4053,-7.4159,-7.425,-7.4263,-7.4299,-7.4334,-7.4342,-7.4171,-7.4148,-7.4126,-7.4094,-7.4343,-7.4343,-7.4515,-7.4517,-7.4518]},{"header":{"parameterUnit":"m.s-1","parameterCategory":1,"la1":30.2991,"la2":30.254,"lo1":-89.0895,"lo2":-89.0444,"dy":0.0017,"dx":0.0017,"nx":28,"ny":28,"refTime":"2024-04-27T03:00:00:Z","depth":0,"parameterNumber":3,"parameterNumberName":"V-component_of_WINDS"},"data":[0,0,0,0,0,0,0,0,0,0,0,0,0,0,0,0,0,0,0,0,0,0,0,0,0,0,0,0,0,0,0,0,0,0,0,0,0,0,0,0,0,0,0,0,0,0,0,0,0,0,0,0,0,0,0,0,0,0,3.4055,3.4056,0,3.4069,3.4069,3.4069,3.4037,3.4036,3.4035,3.4034,3.4045,3.4046,3.4048,0,0,0,0,0,0,0,0,0,0,0,0,0,3.4,3.4002,3.4055,3.4056,3.4056,3.4069,3.4069,3.4069,3.4037,3.4035,3.4034,3.4033,3.4045,3.4046,3.4048,0,0,0,0,0,0,0,0,0,0,0,0,0,3.402,3.4002,3.4055,3.4041,3.404,3.4069,3.4069,3.4069,3.4037,3.4035,3.4034,3.4032,3.4044,3.4046,3.4048,3.409,0,0,3.4054,3.4055,0,0,0,0,0,0,0,0,3.4019,3.4022,3.4043,3.4042,3.4041,3.405,3.4054,3.4076,3.4037,3.4038,3.4034,3.4032,3.4048,3.4049,3.4055,3.4091,3.4091,3.4054,3.4055,3.4056,3.4056,0,0,0,0,0,0,0,3.4018,3.4021,3.4061,3.4043,3.4042,3.4034,3.4035,3.4058,3.4051,3.4038,3.4036,3.4038,3.4047,3.4053,3.4055,3.4092,3.4054,3.4056,3.4057,3.4057,3.4163,3.4165,0,0,0,0,0,0,3.4018,3.402,3.406,3.4061,3.4026,3.4036,3.4037,3.4048,3.4051,3.405,3.4039,3.4036,3.4051,3.4053,3.4055,3.4105,3.4056,3.4058,3.4059,3.4162,3.4164,3.4166,0,0,0,0,0,0,3.4017,3.4022,3.406,3.404,3.4044,3.4039,3.4051,3.4049,3.4056,3.4052,3.405,3.4047,3.405,3.4053,3.4082,3.4105,3.4058,3.406,3.416,3.4162,3.4165,3.4204,0,0,0,0,0,0,3.4016,3.4022,3.4038,3.4041,3.4046,3.4087,3.4053,3.4051,3.4059,3.4056,3.4059,3.4058,3.4049,3.408,3.4084,3.4106,3.4062,3.4158,3.4161,3.4164,3.4201,3.4208,3.4214,0,0,0,0,0,3.4014,3.4048,3.4039,3.4044,3.4066,3.4088,3.4091,3.408,3.4061,3.4077,3.4075,3.4058,3.4102,3.4083,3.4088,3.4111,3.4156,3.416,3.4164,3.4198,3.4206,3.4214,0,0,0,0,0,0,3.4047,3.4048,3.4038,3.4074,3.4082,3.4082,3.4102,3.4089,3.4101,3.4097,3.4083,3.4084,3.4116,3.4117,3.4095,3.4153,3.4126,3.4131,3.415,3.4158,3.4165,3.4163,3.4063,0,0,0,0,0,3.4059,3.4078,3.4077,3.4109,3.4114,3.4108,3.4117,3.4108,3.4115,3.4117,3.4117,3.4123,3.4139,3.4149,3.4163,3.4202,3.4202,3.422,3.4227,3.4232,3.4236,3.4256,3.4264,3.4178,3.4178,3.4178,0,0,3.4083,3.4086,3.4098,3.4116,3.412,3.414,3.411,3.4131,3.4145,3.412,3.4148,3.4148,3.4155,3.4189,3.4204,3.419,3.426,3.4237,3.4241,3.4242,3.4261,3.4269,3.4276,3.4181,3.418,3.418,0,0,3.4135,3.414,3.4167,3.4173,3.4181,3.4177,3.4184,3.4187,3.4187,3.4215,3.4196,3.4213,3.424,3.4245,3.4251,3.4309,3.4293,3.4314,3.4346,3.4366,3.4373,3.4379,3.4398,3.4406,3.4318,3.4318,3.4318,0,3.4163,3.4192,3.4182,3.4205,3.4214,3.4194,3.4221,3.4227,3.4238,3.4244,3.423,3.4264,3.4266,3.4302,3.4316,3.4322,3.4329,3.4312,3.4373,3.4379,3.4384,3.4403,3.441,3.432,3.432,3.432,3.432,0,3.4226,3.4246,3.4267,3.428,3.4291,3.4316,3.431,3.4322,3.4314,3.4311,3.434,3.4344,3.4358,3.4366,3.4357,3.44,3.4392,3.4376,3.4348,3.4395,3.4412,3.4419,3.4324,3.4323,3.4322,3.4322,0,0,3.4297,3.4306,3.4314,3.432,3.4328,3.4343,3.4368,3.4383,3.4393,3.4403,3.4422,3.4446,3.4432,3.4439,3.4431,3.4449,3.4493,3.443,3.443,3.4441,3.454,3.455,3.4559,3.4484,3.4485,3.4486,3.4539,0,3.4348,3.439,3.4383,3.4424,3.4443,3.4425,3.4447,3.4454,3.4453,3.4468,3.4467,3.4484,3.4464,3.4468,3.4486,3.4484,3.4513,3.4481,3.4501,3.4501,3.4497,3.4568,3.4579,3.4628,3.4545,3.4547,3.4547,0,3.4412,3.4426,3.4469,3.4475,3.4482,3.4502,3.4515,3.4531,3.4539,3.4537,3.4546,3.4535,3.4559,3.4534,3.4566,3.4544,3.4553,3.4554,3.4555,3.4555,3.4526,3.4568,3.4644,3.465,3.4558,3.4557,3.4556,0,3.4458,3.4487,3.4516,3.4522,3.4531,3.4545,3.4549,3.4555,3.4565,3.4577,3.4583,3.4598,3.4606,3.4617,3.461,3.4593,3.4644,3.4618,3.4642,3.4642,3.4651,3.465,3.4728,3.466,3.466,3.466,3.466,0,3.4515,3.4541,3.4537,3.4555,3.4584,3.4577,3.4606,3.4608,3.4615,3.4632,3.4619,3.4635,3.4627,3.4643,3.4638,3.4665,3.4669,3.4667,3.4665,3.4667,3.4667,3.4671,3.4666,3.4662,3.4661,3.4661,3.4661,0,3.457,3.4568,3.4599,3.4606,3.4608,3.4629,3.4634,3.4651,3.465,3.4672,3.4677,3.4676,3.4694,3.4689,3.4709,3.4706,3.474,3.4734,3.4737,3.4735,3.4759,3.4756,3.4839,3.4849,3.4777,3.4778,3.4778,0,3.4605,3.4625,3.4635,3.4646,3.4651,3.467,3.468,3.4674,3.4686,3.4698,3.4713,3.473,3.4743,3.4773,3.4773,3.4788,3.4782,3.4811,3.4784,3.4786,3.4781,3.4779,3.478,3.4815,3.4816,3.4816,3.4817,0,3.4667,3.4666,3.4682,3.4698,3.4712,3.4724,3.4735,3.4745,3.474,3.4753,3.4772,3.4783,3.4804,3.4821,3.4835,3.4839,3.4827,3.4826,3.4832,3.4833,3.4833,3.4832,3.4749,3.4823,3.4822,3.4822,3.4822,3.4821,3.4712,3.4729,3.4739,3.4758,3.4766,3.4777,3.4793,3.4795,3.4811,3.4828,3.4824,3.4845,3.4854,3.4872,3.4877,3.4894,3.4883,3.4892,3.4894,3.4896,3.4898,3.4833,3.4897,3.4896,3.4896,3.4896,3.4896,0,3.4772,3.4778,3.4796,3.4812,3.4827,3.4817,3.4829,3.4841,3.4861,3.487,3.4884,3.4907,3.4924,3.4926,3.4942,3.4955,3.495,3.4959,3.4957,3.4957,3.4908,3.49,3.4963,3.4963,3.4963,3.4963,3.4963,3.4963,3.4805,3.4834,3.4834,3.4867,3.4872,3.4894,3.4902,3.4912,3.4919,3.4945,3.496,3.4962,3.4968,3.4985,3.5,3.5,3.5006,3.5017,3.5015,3.4968,3.4961,3.4955,3.4947,3.5019,3.5019,3.5063,3.5064,3.5064]}]]